Harrisburg, PA

10:10 PM EDT on March 24, 2017 (GMT -0400)
Capital City

Weather History for KCXY - March, 2013

Change the Weather History Date:

Tuesday, March 12, 2013

  Actual Average Record
Temperature  
Mean Temperature 48 °F -  
Max Temperature 55 °F 45 °F 84 °F (1990)
Min Temperature 41 °F 29 °F 11 °F (1900)
Degree Days  
Heating Degree Days 16    
Moisture  
Dew Point 46 °F    
Average Humidity 82    
Maximum Humidity 100    
Minimum Humidity 53    
Precipitation  
Precipitation 0.66 in - - ()
Sea Level Pressure  
Sea Level Pressure 29.81 in    
Wind  
Wind Speed 11 mph (WSW)    
Max Wind Speed 18 mph    
Max Gust Speed 26 mph    
Visibility 8 miles    
Events Rain    
Averages and records for this station are not official NWS values.
T = Trace of Precipitation, MM = Missing Value Source: NWS Daily Summary

Daily Weather History Graph

Daily Weather History Graph

Search for Another Location

Airport or City:

Trip Planner

Search our weather history database for the weather conditions in past years. The results will help you decide how hot, cold, wet, or windy it might be!

Date:

Astronomy

Mar. 12, 2013 Rise Set
Actual Time 7:23 AM EDT 7:11 PM EDT
Civil Twilight 6:56 AM EDT 7:38 PM EDT
Nautical Twilight 6:24 AM EDT 8:09 PM EDT
Astronomical Twilight 5:53 AM EDT 8:41 PM EDT
Moon 7:28 AM EDT (3/12) 8:24 PM EDT (3/12)
Length of Visible Light 12h 42m
Length of Day
11h 47m
New Moon, 1% of the Moon is Illuminated
Mar 12
New Moon
Mar 19
First Quarter
Mar 27
Full
Apr 3
Last Quarter
Apr 10
New

Hourly Weather History & Observations

Time (EDT) Temp. Windchill Dew Point Humidity Pressure Visibility Wind Dir Wind Speed Gust Speed Precip Events Conditions
12:56 AM 53.1 °F - 48.0 °F 83% 29.88 in 10.0 mi SSE 16.1 mph - 0.01 in Rain Light Rain
1:56 AM 53.1 °F - 48.0 °F 83% 29.87 in 10.0 mi SE 13.8 mph 23.0 mph 0.02 in Rain Light Rain
2:56 AM 53.1 °F - 48.0 °F 83% 29.87 in 10.0 mi Variable 5.8 mph - 0.01 in Rain Light Rain
3:56 AM 54.0 °F - 48.0 °F 80% 29.84 in 10.0 mi SE 9.2 mph - 0.00 in Rain Light Rain
4:22 AM 53.6 °F - 48.2 °F 82% 29.82 in 10.0 mi SSE 13.8 mph - 0.00 in   Overcast
4:56 AM 54.0 °F - 48.9 °F 83% 29.81 in 10.0 mi SE 12.7 mph 25.3 mph 0.00 in Rain Light Rain
5:53 AM 53.6 °F - 50.0 °F 88% 29.80 in 10.0 mi South 10.4 mph 18.4 mph 0.00 in   Overcast
5:56 AM 54.0 °F - 50.0 °F 86% 29.81 in 10.0 mi South 10.4 mph 18.4 mph 0.00 in   Overcast
6:46 AM 55.4 °F - 50.0 °F 82% 29.79 in 10.0 mi SE 12.7 mph - 0.00 in Rain Light Rain
6:56 AM 55.0 °F - 50.0 °F 83% 29.80 in 10.0 mi SSE 10.4 mph - 0.00 in   Overcast
7:56 AM 54.0 °F - 51.1 °F 90% 29.78 in 5.0 mi SSE 15.0 mph - 0.07 in Rain Rain
8:06 AM 53.6 °F - 51.8 °F 94% 29.77 in 6.0 mi SSE 13.8 mph - 0.01 in Rain Rain
8:56 AM 54.0 °F - 52.0 °F 93% 29.78 in 2.0 mi SSE 12.7 mph - 0.14 in Rain Heavy Rain
9:03 AM 53.6 °F - 51.8 °F 94% 29.76 in 3.0 mi SE 8.1 mph - 0.02 in Rain Rain
9:19 AM 53.6 °F - 51.8 °F 94% 29.76 in 7.0 mi ESE 8.1 mph - 0.04 in Rain Light Rain
9:34 AM 53.6 °F - 51.8 °F 94% 29.77 in 5.0 mi WNW 5.8 mph - 0.05 in Rain Light Rain
9:49 AM 53.6 °F - 51.8 °F 94% 29.77 in 1.8 mi Calm Calm - 0.10 in Rain Heavy Rain
9:56 AM 54.0 °F - 52.0 °F 93% 29.77 in 2.5 mi South 3.5 mph - 0.12 in Rain Rain
10:04 AM 53.6 °F - 51.8 °F 94% 29.76 in 4.0 mi ESE 4.6 mph - 0.02 in Rain Rain
10:12 AM 53.6 °F - 51.8 °F 94% 29.75 in 2.5 mi SE 6.9 mph - 0.06 in Rain Heavy Rain
10:29 AM 53.6 °F - 51.8 °F 94% 29.75 in 4.0 mi Calm Calm - 0.13 in Rain Rain
10:37 AM 53.6 °F - 53.6 °F 100% 29.75 in 4.0 mi Calm Calm - 0.14 in Rain Rain
10:52 AM 53.6 °F - 51.8 °F 94% 29.75 in 4.0 mi Calm Calm - 0.17 in Rain Rain
10:53 AM 54.0 °F - 52.0 °F 93% 29.76 in 5.0 mi Calm Calm - 0.17 in Rain Rain
11:24 AM 53.6 °F - 53.6 °F 100% 29.76 in 2.0 mi WNW 4.6 mph - 0.05 in Rain Rain
11:32 AM 53.6 °F - 51.8 °F 94% 29.76 in 2.5 mi WNW 10.4 mph - 0.06 in Rain Rain
11:40 AM 51.8 °F - 50.0 °F 94% 29.77 in 5.0 mi WNW 8.1 mph - 0.08 in Rain Rain
11:56 AM 52.0 °F - 50.0 °F 93% 29.77 in 6.0 mi WNW 8.1 mph - 0.10 in Rain Light Rain
12:20 PM 51.8 °F - 48.2 °F 88% 29.77 in 10.0 mi WNW 10.4 mph - 0.01 in Rain Light Rain
12:56 PM 50.0 °F - 46.9 °F 89% 29.78 in 10.0 mi WNW 10.4 mph - 0.02 in Rain Light Rain
1:29 PM 50.0 °F - 44.6 °F 82% 29.77 in 10.0 mi WNW 15.0 mph - 0.00 in   Overcast
1:56 PM 50.0 °F - 45.0 °F 83% 29.78 in 10.0 mi NW 11.5 mph - 0.00 in   Overcast
2:03 PM 50.0 °F - 44.6 °F 82% 29.78 in 10.0 mi WNW 10.4 mph - N/A   Overcast
2:56 PM 52.0 °F - 42.1 °F 69% 29.79 in 10.0 mi NW 12.7 mph 20.7 mph N/A   Overcast
3:56 PM 50.0 °F - 39.9 °F 68% 29.80 in 10.0 mi NW 13.8 mph - N/A   Overcast
4:56 PM 48.0 °F - 35.1 °F 61% 29.83 in 10.0 mi WNW 18.4 mph 26.5 mph N/A   Overcast
5:56 PM 46.9 °F - 33.1 °F 59% 29.85 in 10.0 mi WNW 16.1 mph - N/A   Overcast
6:56 PM 46.0 °F 39.3 °F 30.9 °F 56% 29.89 in 10.0 mi WNW 16.1 mph 25.3 mph N/A   Overcast
7:56 PM 45.0 °F 37.9 °F 30.0 °F 56% 29.91 in 10.0 mi WNW 16.1 mph 23.0 mph N/A   Overcast
8:56 PM 44.1 °F 37.1 °F 28.9 °F 55% 29.92 in 10.0 mi NW 15.0 mph 20.7 mph N/A   Overcast
9:56 PM 43.0 °F 36.4 °F 27.0 °F 53% 29.95 in 10.0 mi WNW 12.7 mph 20.7 mph N/A   Overcast
10:56 PM 42.1 °F 35.2 °F 27.0 °F 55% 29.96 in 10.0 mi NW 12.7 mph 17.3 mph N/A   Overcast
11:56 PM 41.0 °F 34.7 °F 26.1 °F 55% 29.96 in 10.0 mi WNW 10.4 mph 23.0 mph N/A   Scattered Clouds